Regional Weather Roundup
Issued by NWS

Home | Current Version | Previous Version | Text Only | Print | Product List | Glossary On
Versions: 1 2 3 4 5 6 7 8 9 10 11 12 13 14 15 16 17 18 19 20 21 22 23 24 25 26 27
000
ASUS44 KBMX 041910
RWRAL

ALABAMA REGIONAL WEATHER ROUNDUP
NATIONAL WEATHER SERVICE BIRMINGHAM AL
100 PM CST SUN DEC 04 2016

NOTE: "FAIR" INDICATES FEW OR NO CLOUDS BELOW 12,000 FEET
WITH NO SIGNIFICANT WEATHER AND/OR OBSTRUCTIONS TO VISIBILITY.

THE REMARK "TC" DENOTES TEMPERATURE IN DEGREES CELSIUS.

ALZ001>011-014-016>018-020-042000-
NORTH ALABAMA

CITY           SKY/WX    TMP DP  RH WIND       PRES   REMARKS
MUSCLE SHOALS  CLOUDY    49  46  90 SE8       29.93F
HUNTSVILLE     HVY RAIN  49  46  90 SE5       29.96S FOG
DECATUR        LGT RAIN  47  47 100 SE7       29.95F FOG
HALEYVILLE     LGT RAIN  48  47  96 SE6       29.94F
GADSDEN        LGT RAIN  47  46  97 E7        29.99F FOG
$$

ALZ012-013-022-023-030>036-040>044-042000-
WEST CENTRAL ALABAMA

CITY           SKY/WX    TMP DP  RH WIND       PRES   REMARKS
TUSCALOOSA     CLOUDY    54  53  97 E3        29.93F FOG
$$

ALZ015-024>027-033>036-040>044-042000-
CENTRAL ALABAMA

CITY           SKY/WX    TMP DP  RH WIND       PRES   REMARKS
BIRMINGHAM     CLOUDY    51  50  96 VRB5      29.96F
MONTGOMERY     CLOUDY    60  55  83 NE6       29.95F
SHELBY CO ARPT CLOUDY    52  52 100 VRB7      29.94F
MAXWELL AFB    CLOUDY    55  55 100 NE7       29.94F
GREENVILLE     LGT RAIN  63  59  87 SE8       29.90F FOG
$$

ALZ019-021-028-029-037-038-045>048-042000-
EAST CENTRAL ALABAMA

CITY           SKY/WX    TMP DP  RH WIND       PRES   REMARKS
ANNISTON       CLOUDY    48  46  93 E9        30.01F
ALEXANDER CITY CLOUDY    55  54  96 E5        29.99F
AUBURN         LGT RAIN  51  50  96 SE8       29.99F
$$

ALZ051>064-042000-
SOUTHWEST ALABAMA

CITY           SKY/WX    TMP DP  RH WIND       PRES   REMARKS
MOBILE         HVY RAIN  70  70 100 S6        29.89F FOG
BROOKLEY FIELD PTSUNNY   69  68  96 SE7       29.89F FOG
EVERGREEN      CLOUDY    65  63  93 E6        29.92F
$$

ALZ049-050-065>069-042000-
SOUTHEAST ALABAMA

CITY           SKY/WX    TMP DP  RH WIND       PRES   REMARKS
DOTHAN         CLOUDY    65  59  81 E5        29.99F
OZARK          LGT RAIN  63  59  88 NE8       29.93F
TROY           HVY RAIN  58  58 100 E5        29.96F FOG
EUFAULA        LGT RAIN  57  54  89 E6        29.98F
$$




USA.gov is the U.S. government's official web portal to all federal, state and local government web resources and services.